Regional Weather Roundup
Issued by NWS Charleston, WV

Home | Current Version | Previous Version | Graphics & Text | Print | Product List | Glossary On
Versions: 1 2 3 4 5 6 7 8 9 10 11 12 13 14 15 16 17 18 19 20 21 22 23 24 25 26 27
000
ASUS41 KRLX 150710
RWRRLX
West Virginia Regional Weather Roundup
National Weather Service Charleston WV
300 AM EDT TUE APR 15 2014

Note: "fair" indicates few or no clouds below 12,000 feet with no
significant weather and/or obstructions to visibility.

WVZ003-150800-
Northern Panhandle of West Virginia

CITY           SKY/WX    TMP DP  RH WIND       PRES   REMARKS
WHEELING       CLOUDY    63  53  70 S15G24    29.55F
$$

WVZ009-150800-
Northwest West Virginia

CITY           SKY/WX    TMP DP  RH WIND       PRES   REMARKS
PARKERSBURG    CLOUDY    66  52  60 W15G21    29.61F
$$

WVZ006-150800-
Western West Virginia

CITY           SKY/WX    TMP DP  RH WIND       PRES   REMARKS
HUNTINGTON     LGT RAIN  51  49  92 NW17G26   29.67R
$$

WVZ015-150800-
West Central West Virginia

CITY           SKY/WX    TMP DP  RH WIND       PRES   REMARKS
CHARLESTON     CLOUDY    67  55  65 S9        29.61F
$$

WVZ031-150800-
North Central West Virginia

CITY           SKY/WX    TMP DP  RH WIND       PRES   REMARKS
CLARKSBURG     MOCLDY    64  52  64 S7        29.61F
MORGANTOWN     MOCLDY    67  52  58 VRB6      29.61F
$$

WVZ035-042-045-150800-
South Central West Virginia

CITY           SKY/WX    TMP DP  RH WIND       PRES   REMARKS
BECKLEY        CLOUDY    59  53  80 S7        29.70F
BLUEFIELD      CLOUDY    62  53  72 W8        29.74F
LEWISBURG      CLOUDY    57  55  94 CALM      29.72F
$$

WVZ047-150800-
Northern Mountains of West Virginia

CITY           SKY/WX    TMP DP  RH WIND       PRES   REMARKS
ELKINS         CLOUDY    60  53  77 SE5       29.67F
$$

WVZ052-150800-
Eastern Panhandle of West Virginia

CITY           SKY/WX    TMP DP  RH WIND       PRES   REMARKS
MARTINSBURG    CLOUDY    67  55  65 S8        29.69F
PETERSBURG     LGT RAIN  66  63  88 CALM      29.67F
$$



USA.gov is the U.S. government's official web portal to all federal, state and local government web resources and services.